Погода в Серпейске

Россия / Калужская область     54°20′10″N   34°59′27″E
темп.,
°C
ветер,
м/с
пор.,
м/с
влажн.,
%
обл.,
%
осадки,
мм/ч
давл.,
гПа
погр.,
м
14 апреля, ср
ср1400:00+12ююв237589 0.0 101952
03:00+11ююв4108316 0.0 1018305
06:00+8ю38957 0.0 1019193
09:00+12ююз478580 0.0 1019410
12:00+15ю566593 0.4 10181238
15:00+15ю4564100 0.5 10171036
18:00+14юв2369100 0.0 1017110
21:00+12всв2276100 0.1 101712
15 апреля, чт
чт1500:00+10св2280100 0.1 101619
03:00+9ссв3689100 0.6 1016113
06:00+9св3485100 0.1 101577
09:00+12в2365100 0.1 1015256
12:00+14юв3455100 0.0 10151089
15:00+11вюв3880100 0.8 1015814
18:00+11вюв388214 1.2 1014561
21:00+9всв3391100 1.3 101555
16 апреля, пт
пт1600:00+9св499575 1.6 1015339
03:00+8всв4109557 1.6 1015304
06:00+7св5109599 0.0 1015410
09:00+9всв5888100 0.1 1016514
12:00+11в5882100 1.4 1016757
15:00+14в5871100 3.1 10161156
18:00+11всв5988100 4.3 1016324
21:00+9св4897100 6.6 1017261
17 апреля, сб
сб1700:00+9всв499781 1.1 1018286
03:00+9всв5996100 1.6 1019341
06:00+8всв5895100 0.2 1021431
09:00+9св5892100 0.5 1020518
12:00+10всв5889100 0.2 1023678
15:00+13всв71172100 0.2 10221234
18:00+13всв7137584 0.1 1022818
21:00+11в71479100 0.5 1024745
18 апреля, вс
вс1800:00+9всв6128195 0.1 1025484
03:00+6всв5128030 0.1 1026378
06:00+5всв5118020 0.0 1027300
09:00+8в586725 0.0 1028491
12:00+11в5765100 0.0 1028858
15:00+14в67445 0.0 10291584
18:00+11вюв496427 0.0 1028751
21:00+8всв357728 0.0 102964